Date,TemperatureHighF,TemperatureAvgF,TemperatureLowF,DewpointHighF,DewpointAvgF,DewpointLowF,HumidityHigh,HumidityAvg,HumidityLow,PressureMaxIn,PressureMinIn,WindSpeedMaxMPH,WindSpeedAvgMPH,GustSpeedMaxMPH,PrecipitationSumIn
2013-1-1,33.7,23.4,10.8,28.7,16.9,7.2,87,76,65,30.13,29.92,9,2,18,0.00
2013-1-2,25.6,20.7,12.8,21.6,16.0,8.4,92,82,69,30.31,30.08,7,2,15,0.00
2013-1-3,29.0,21.7,12.8,26.4,18.3,9.4,93,87,79,30.31,30.06,8,2,18,0.00
2013-1-4,32.6,31.9,30.8,26.8,25.9,24.2,81,78,76,30.09,29.95,22,7,25,0.00
2013-1-5,35.7,31.9,28.9,28.2,25.9,23.5,82,78,72,30.37,30.10,10,2,20,0.04
2013-1-6,37.3,34.3,30.1,32.9,30.4,24.4,93,86,79,30.15,29.96,7,3,15,0.20
2013-1-7,35.0,28.3,23.1,32.4,23.7,19.3,90,83,73,30.49,30.16,6,1,12,0.02
2013-1-8,39.3,32.0,25.2,30.0,26.0,21.2,92,79,68,30.41,30.35,5,1,9,0.05
2013-1-9,47.1,36.7,27.2,37.1,29.3,21.6,81,75,62,30.39,30.03,12,4,23,0.03
2013-1-10,44.2,37.5,32.8,30.8,29.4,27.0,87,73,57,30.67,30.40,10,1,16,0.00
2013-1-11,44.1,40.4,34.6,39.9,34.2,27.7,91,79,58,30.51,29.96,11,4,18,0.11
2013-1-12,56.7,48.5,41.8,50.6,45.2,39.7,94,88,80,30.07,30.01,7,2,10,0.00
2013-1-13,68.6,55.9,49.4,58.4,51.6,47.1,95,86,70,30.03,29.80,15,3,19,0.01
2013-1-14,53.7,35.9,28.1,51.4,30.0,21.4,94,79,69,30.46,29.79,19,3,23,0.02
2013-1-15,34.6,29.3,24.1,24.3,22.1,20.2,86,74,59,30.49,30.28,5,1,11,0.00
2013-1-16,39.8,35.1,31.5,31.1,28.4,26.0,82,76,70,30.00,29.86,8,3,17,0.00
2013-1-17,35.6,25.3,17.1,30.0,19.0,12.4,89,77,66,30.27,29.91,12,2,17,0.00
2013-1-18,29.3,21.1,16.2,19.4,13.9,10.5,90,75,58,30.53,30.12,8,2,15,0.02
2013-1-19,47.8,40.6,28.8,32.1,26.9,19.6,69,58,47,30.12,29.65,11,4,20,0.00
2013-1-20,48.3,34.3,18.3,36.7,23.9,12.3,87,66,48,30.15,29.51,21,8,30,0.02
2013-1-21,21.7,18.8,13.6,15.1,11.5,6.0,84,73,63,30.14,29.95,9,2,16,0.00
2013-1-22,13.9,10.1,7.6,5.0,1.8,-1.3,83,69,59,30.28,29.99,9,4,17,0.00
2013-1-23,14.0,10.0,6.7,7.9,4.6,0.1,89,79,60,30.34,30.19,8,2,12,0.00
2013-1-24,14.2,11.4,8.7,10.3,6.9,3.4,89,82,72,30.62,30.19,13,1,15,0.00
2013-1-25,16.4,12.4,8.2,12.1,7.8,4.8,89,82,71,30.60,30.19,4,1,6,0.00
2013-1-26,24.5,14.3,1.3,16.6,9.7,-1.9,90,82,62,30.49,30.19,4,0,7,0.02
2013-1-27,28.6,22.3,16.8,17.8,16.4,13.6,90,78,61,30.66,30.47,4,0,7,0.04
2013-1-28,42.1,33.1,24.2,41.3,30.3,17.7,97,90,74,30.44,29.92,9,2,12,0.16
2013-1-29,53.9,40.5,32.0,52.5,39.7,31.2,98,97,94,30.13,29.81,7,1,17,0.39
2013-1-30,62.5,57.2,52.6,56.1,51.9,49.3,95,82,74,29.81,29.09,16,5,21,0.11
2013-1-31,53.7,30.7,21.7,51.4,23.1,12.0,93,74,51,29.76,29.06,16,7,31,0.10
2013-2-1,22.2,19.7,17.6,17.1,14.1,8.9,91,79,65,30.27,29.77,10,4,20,0.01
2013-2-2,21.1,17.7,14.3,16.1,11.9,7.9,89,78,66,30.27,30.07,7,3,14,0.00
2013-2-3,24.5,19.0,11.6,17.6,14.4,9.2,92,83,68,30.07,29.88,5,1,10,0.00
2013-2-4,22.2,18.9,15.5,14.3,11.9,9.1,86,74,58,30.05,29.94,8,3,16,0.00
2013-2-5,27.2,21.9,16.6,20.9,16.0,13.4,90,78,64,30.06,29.93,6,1,8,0.01
2013-2-6,27.8,23.0,14.4,23.8,16.3,9.7,89,76,56,30.48,29.96,10,2,15,0.00
2013-2-7,30.1,23.8,13.4,23.9,16.2,10.0,90,73,61,30.52,30.18,5,1,11,0.00
2013-2-8,33.4,27.8,18.6,31.8,25.0,16.9,95,89,75,30.18,29.86,3,0,8,0.00
2013-2-9,20.9,17.2,9.4,17.7,14.7,7.1,93,90,85,30.51,30.18,0,0,0,0.00
2013-2-10,35.1,20.4,4.3,28.1,16.2,1.5,90,84,72,30.51,30.06,8,1,13,0.00
2013-2-11,49.1,38.4,32.5,41.2,31.7,27.0,93,77,64,30.05,29.62,14,6,25,0.18
2013-2-12,35.1,33.0,31.2,30.7,28.2,25.4,94,83,69,30.02,29.76,12,5,19,0.00
2013-2-14,37.1,35.7,34.9,34.0,33.6,33.3,94,92,87,29.90,29.85,6,3,12,0.12
2013-2-15,37.9,33.2,22.5,34.7,25.5,16.3,94,73,64,30.14,29.84,15,5,20,0.01
2013-2-16,29.4,24.1,19.3,22.2,18.1,14.4,90,78,54,30.14,30.01,7,0,8,0.00
2013-2-17,21.8,15.7,11.8,19.5,11.5,6.1,92,83,71,30.28,29.98,12,2,18,0.00
2013-2-18,29.6,20.7,10.9,19.3,12.9,7.8,88,73,55,30.39,30.00,6,1,12,0.13
2013-2-19,35.0,29.3,25.4,24.4,20.9,18.6,82,71,62,29.99,29.79,12,5,20,0.16
2013-2-20,25.7,22.3,19.1,20.0,15.7,12.6,86,76,64,30.13,29.82,14,6,23,0.00
2013-2-21,22.4,18.2,13.2,17.7,13.6,8.3,87,82,77,30.51,30.12,12,3,18,0.00
2013-2-22,34.5,27.6,21.3,28.4,22.8,17.0,91,82,71,30.49,30.09,11,2,16,0.00
2013-2-23,38.2,33.8,31.0,32.7,28.9,25.4,89,82,78,30.09,29.94,9,3,16,0.01
2013-2-24,33.4,31.0,29.9,28.4,26.0,23.8,93,82,70,30.13,29.93,13,2,17,0.01
2013-2-25,35.6,33.3,27.7,29.7,28.5,25.2,90,83,76,30.31,30.28,4,1,7,0.01
2013-2-26,44.4,34.4,24.7,32.4,27.8,22.7,95,79,54,30.32,29.92,7,1,15,0.26
2013-2-27,35.0,33.4,32.6,34.0,32.3,31.4,100,96,95,29.90,29.64,7,1,12,0.64
2013-2-28,36.4,33.9,32.6,33.1,32.3,31.6,96,94,86,29.80,29.61,6,2,9,0.46
2013-3-1,32.8,29.8,25.4,31.8,26.4,20.9,96,87,78,30.01,29.80,8,1,13,0.05
2013-3-2,27.6,24.5,22.5,23.5,20.8,19.1,90,85,81,30.03,29.96,7,2,12,0.00
2013-3-3,25.0,22.8,20.7,21.0,19.0,16.2,92,85,75,29.99,29.94,8,2,13,0.00
2013-3-4,29.4,25.5,21.5,22.8,19.7,17.0,87,79,70,30.14,29.98,11,4,19,0.00
2013-3-5,32.7,27.4,24.6,25.3,22.3,20.1,89,81,70,30.18,30.07,4,1,10,0.11
2013-3-6,39.3,32.7,22.7,33.5,28.9,20.0,91,86,78,30.23,30.05,5,1,11,0.17
2013-3-7,35.9,33.9,30.7,33.0,30.4,25.9,94,87,72,30.36,30.21,4,1,8,0.00
2013-3-8,41.8,34.8,29.2,28.9,26.2,23.8,94,72,52,30.48,30.34,8,1,15,0.03
2013-3-9,49.4,35.1,25.8,34.2,28.4,24.1,95,78,49,30.50,30.30,5,0,7,0.00
2013-3-10,61.8,48.4,33.9,35.9,30.6,26.8,76,52,34,30.31,30.04,8,3,16,0.00
2013-3-11,55.7,52.2,49.9,44.3,34.0,30.8,70,50,44,30.04,29.71,13,5,25,0.00
2013-3-12,53.3,39.6,34.4,46.7,34.8,29.0,92,83,74,29.97,29.72,8,3,17,0.26
2013-3-13,38.7,32.3,23.4,31.1,26.8,16.5,92,80,67,30.02,29.89,12,4,22,0.03
2013-3-14,31.8,25.2,18.8,18.3,13.4,8.9,86,62,39,30.14,30.01,18,6,26,0.00
2013-3-15,39.0,31.3,25.0,32.5,25.2,15.8,94,78,61,30.13,29.79,12,3,21,0.05
2013-3-16,29.9,25.4,19.1,22.3,18.6,15.8,88,75,63,30.07,29.93,8,1,11,0.00
2013-3-17,30.9,24.4,18.3,24.0,17.4,7.9,91,76,48,30.43,30.06,5,1,11,0.02
2013-3-18,34.1,25.7,17.3,31.3,18.5,11.6,94,75,49,30.43,29.81,11,2,21,0.00
2013-3-19,36.5,32.3,26.1,33.1,27.1,20.8,93,81,68,29.90,29.75,11,4,23,0.21
2013-3-20,35.2,29.3,23.0,24.6,21.6,18.6,88,73,56,29.91,29.87,18,3,18,0.01
2013-3-21,31.7,25.6,19.5,25.5,19.2,13.1,90,77,52,29.90,29.79,9,3,15,0.00
2013-3-22,32.5,28.6,24.9,27.2,24.9,22.6,92,86,74,29.99,29.81,9,3,15,0.06
2013-3-23,38.6,32.8,28.3,26.7,25.2,22.8,87,74,59,30.09,29.97,10,3,22,0.02
2013-3-24,38.5,32.4,25.4,27.9,24.6,22.2,92,74,57,30.09,29.82,5,1,9,0.00
2013-3-25,39.8,34.9,31.2,30.5,27.7,25.1,86,75,64,29.81,29.69,9,1,12,0.00
2013-3-26,46.0,38.4,30.0,34.2,29.8,26.9,89,72,52,30.01,29.80,5,1,11,0.00
2013-3-27,45.3,36.4,31.2,35.8,31.0,26.6,95,81,59,30.13,29.98,9,2,16,0.03
2013-3-28,44.5,37.8,33.0,36.8,32.7,29.3,95,83,55,30.27,30.12,7,2,12,0.09
2013-3-29,51.2,41.3,34.5,36.0,32.7,27.8,89,73,43,30.27,30.19,9,2,15,0.00
2013-3-30,52.6,40.2,29.6,31.7,28.4,25.2,86,65,38,30.27,30.11,4,1,12,0.00
2013-3-31,57.3,43.9,35.3,43.1,33.7,26.3,92,69,42,30.11,29.68,10,4,21,0.04
2013-4-1,41.4,33.5,27.4,39.0,22.5,16.5,92,65,46,30.02,29.63,15,5,27,0.06
2013-4-2,35.1,28.4,23.1,27.9,20.7,17.1,89,73,48,30.19,30.01,13,4,21,0.01
2013-4-3,36.6,30.7,26.9,22.4,18.0,13.6,77,60,39,30.46,30.18,13,4,22,0.01
2013-4-4,56.0,38.1,24.5,29.0,21.9,17.3,80,55,22,30.44,29.98,7,2,13,0.00
2013-4-5,42.8,37.7,29.4,30.6,24.1,17.0,75,58,42,30.23,29.94,8,2,18,0.00
2013-4-6,45.8,33.9,22.0,26.0,21.2,18.5,90,62,39,30.41,30.03,5,1,10,0.00
2013-4-7,69.2,58.8,43.2,47.4,38.4,22.2,58,47,39,30.02,29.67,11,6,24,0.00
2013-4-8,52.5,50.5,48.4,38.6,37.9,37.2,65,62,59,30.00,29.94,3,2,13,0.00
2013-4-9,48.4,46.0,43.6,43.2,42.1,40.9,90,86,82,30.00,29.98,1,1,5,0.00
2013-4-11,33.7,32.6,31.7,31.4,31.1,30.4,96,94,91,30.09,30.00,3,2,11,0.40
2013-4-12,50.8,39.1,33.9,48.1,36.8,31.6,98,92,80,29.96,29.51,9,3,17,0.83
2013-4-13,45.4,41.5,38.5,38.3,35.6,33.8,87,80,68,29.91,29.75,12,5,19,0.00
2013-4-14,45.8,39.0,35.2,34.3,30.0,27.5,93,71,54,30.18,29.92,7,2,19,0.02
2013-4-15,72.2,58.2,36.3,50.9,42.9,26.5,74,58,44,30.15,29.95,9,2,16,0.00
2013-4-16,64.3,56.7,44.1,58.1,50.1,36.0,96,79,68,30.21,29.92,17,4,22,0.19
2013-4-17,53.6,45.1,34.5,38.3,34.3,31.6,90,67,46,30.34,30.21,5,1,10,0.00
2013-4-18,76.5,62.6,44.5,60.7,51.5,34.0,78,68,57,30.21,29.66,17,6,26,0.01
2013-4-19,73.3,58.5,42.2,60.0,49.6,32.2,85,73,62,29.72,29.33,15,6,37,0.05
2013-4-20,42.2,37.9,31.6,33.5,27.5,21.2,89,66,52,30.39,29.70,15,6,26,0.03
2013-4-21,42.4,34.2,25.7,28.6,22.7,15.1,86,64,41,30.67,30.40,8,1,11,0.00
2013-4-22,60.6,46.0,31.9,32.5,26.7,16.8,71,49,32,30.60,30.32,11,2,19,0.00
2013-4-23,65.5,52.6,40.3,40.8,35.0,28.6,70,52,35,30.32,29.92,12,3,15,0.00
2013-4-24,66.8,53.6,38.5,56.3,44.4,35.1,92,72,54,29.96,29.52,16,4,25,0.14
2013-4-25,55.4,43.7,34.8,39.0,34.4,30.7,91,72,39,30.28,29.98,9,2,21,0.01
2013-4-26,54.3,44.8,35.4,37.6,33.1,26.4,94,66,36,30.45,30.28,10,1,13,0.01
2013-4-27,67.4,51.7,38.3,41.8,36.3,31.2,80,58,36,30.42,30.20,5,1,11,0.00
2013-4-28,74.7,59.8,48.4,48.7,41.3,36.5,83,54,26,30.20,30.00,12,3,20,0.08
2013-4-29,65.5,57.0,49.8,54.4,49.7,45.1,90,77,67,30.02,29.94,10,4,19,0.18
2013-4-30,73.6,62.9,56.8,56.4,54.1,52.1,88,74,52,30.17,30.01,9,2,15,0.00
2013-5-1,80.2,67.1,58.4,52.3,47.4,35.9,76,53,25,30.30,30.18,9,2,15,0.00
2013-5-2,76.0,63.7,51.4,46.7,41.0,35.2,64,45,30,30.38,30.24,7,1,13,0.00
2013-5-3,79.2,65.4,52.5,51.4,45.6,41.2,71,50,33,30.26,30.17,4,0,11,0.00
2013-5-4,71.9,62.1,53.0,48.0,43.6,39.3,63,51,35,30.25,30.12,9,1,13,0.00
2013-5-5,75.1,61.0,46.0,51.3,45.5,40.9,87,60,37,30.17,30.07,6,0,11,0.00
2013-5-6,72.7,60.8,49.3,46.1,41.4,35.7,79,51,26,30.13,29.99,6,1,13,0.00
2013-5-7,75.8,63.9,51.3,57.6,51.4,45.7,89,65,48,30.09,29.97,7,0,10,0.00
2013-5-8,71.7,62.2,54.6,60.0,55.4,49.9,96,79,64,30.01,29.89,4,0,12,0.02
2013-5-9,71.4,61.3,55.2,61.5,57.4,53.8,100,88,66,29.92,29.84,4,0,13,0.37
2013-5-10,74.6,61.5,53.7,64.0,57.1,51.8,96,86,62,29.91,29.68,7,1,12,0.31
2013-5-11,59.6,54.3,48.5,58.7,51.6,46.9,97,91,76,29.73,29.62,6,2,16,0.07
2013-5-16,74.9,64.9,51.0,47.4,41.9,38.6,71,45,29,29.97,29.73,11,3,22,0.00
2013-5-17,66.6,54.0,40.1,45.4,41.6,36.6,94,66,34,30.20,29.98,6,0,7,0.00
2013-5-18,69.4,56.8,42.9,51.5,44.6,41.0,93,66,46,30.24,30.11,8,1,10,0.00
2013-5-19,82.0,68.7,59.2,65.2,58.4,50.1,84,71,53,30.11,29.94,7,1,14,0.00
2013-5-20,82.9,70.3,62.4,67.9,62.6,58.8,89,77,56,30.00,29.82,5,1,15,0.00
2013-5-21,85.6,70.2,61.0,72.5,64.2,59.0,97,82,63,29.89,29.71,6,0,18,0.27
2013-5-22,85.1,73.8,60.8,71.8,66.8,60.0,98,80,60,29.76,29.61,7,1,11,0.19
2013-5-23,76.7,66.3,44.4,64.5,59.7,42.8,94,80,62,29.85,29.65,10,1,15,0.24
2013-5-24,52.4,42.7,38.7,42.8,39.3,37.5,96,88,59,30.18,29.86,6,1,16,0.31
2013-5-25,58.6,49.2,38.9,40.3,37.8,35.8,89,67,44,30.21,30.12,9,1,18,0.00
2013-5-26,62.5,52.8,43.3,40.0,37.6,35.2,80,58,37,30.18,30.11,11,2,20,0.00
2013-5-27,70.2,57.0,43.4,45.5,40.3,36.1,87,58,30,30.25,30.12,6,1,10,0.00
2013-5-28,61.2,60.7,60.3,60.3,59.9,59.5,97,97,97,29.92,29.90,5,1,11,0.72
2013-5-29,76.6,64.5,60.4,69.0,63.4,59.5,99,96,77,29.93,29.85,3,0,10,0.84
2013-5-30,86.6,86.3,86.1,67.0,66.3,65.8,53,51,50,30.01,30.00,3,1,10,0.00
2013-6-2,72.1,65.8,57.7,61.0,57.8,51.6,80,75,67,29.84,29.70,8,2,22,0.59
2013-6-3,63.2,56.0,50.1,51.0,46.2,41.8,85,71,48,29.99,29.84,10,2,14,0.00
2013-6-4,66.7,57.0,48.3,46.9,43.0,38.2,87,62,36,30.14,29.98,12,1,13,0.00
2013-6-5,67.6,57.7,50.9,53.0,45.3,39.3,78,64,44,30.19,30.06,6,1,11,0.00
2013-6-6,58.5,55.7,53.2,57.7,52.9,45.8,97,91,68,30.06,29.81,5,0,12,1.46
2013-6-7,61.3,57.6,54.8,59.2,56.6,54.2,98,96,90,29.83,29.77,3,0,5,0.08
2013-6-8,65.0,59.1,54.8,59.0,56.3,53.7,99,91,78,30.04,29.78,5,0,9,0.03
2013-6-9,74.7,64.4,53.9,61.5,55.5,51.3,91,74,54,30.16,30.04,4,0,7,0.00
2013-6-10,71.0,65.5,62.7,65.2,61.0,55.7,97,86,73,30.08,29.67,7,1,15,0.09
2013-6-11,67.7,64.2,58.1,64.8,61.3,54.5,97,91,79,29.80,29.59,10,1,14,0.13
2013-6-12,75.4,64.8,52.6,59.7,55.6,51.1,97,74,49,29.91,29.73,4,0,8,0.00
2013-6-13,66.2,60.9,54.6,59.8,57.5,53.1,98,89,75,29.75,29.48,8,1,19,1.37
2013-6-14,73.9,62.8,53.2,61.1,57.1,52.4,98,83,62,29.94,29.75,6,1,14,0.01
2013-6-15,74.8,64.6,52.9,56.4,52.4,44.6,88,67,34,30.02,29.91,7,1,13,0.00
2013-6-16,77.0,66.2,60.6,67.4,60.6,54.4,97,83,71,29.91,29.66,8,1,16,0.23
2013-6-17,77.5,69.4,60.8,66.1,61.3,57.0,95,77,57,29.90,29.78,8,1,12,0.00
2013-6-18,69.2,60.1,52.4,57.8,52.8,49.3,93,78,52,30.00,29.86,6,1,12,0.04
2013-6-19,67.5,58.3,49.8,51.4,47.7,42.3,92,70,41,30.17,29.99,5,0,10,0.00
2013-6-20,74.2,60.6,45.8,54.1,48.9,44.5,98,70,39,30.23,30.17,4,0,9,0.00
2013-6-21,81.6,66.2,52.8,60.1,53.7,48.6,87,67,36,30.24,30.14,3,0,9,0.00
2013-6-22,87.1,75.3,60.2,72.7,65.6,56.4,89,73,55,30.14,29.96,5,0,14,0.00
2013-6-23,89.0,79.9,70.8,73.8,69.6,66.4,90,72,51,30.01,29.93,9,1,16,0.00
2013-6-24,86.4,78.1,69.1,72.6,67.6,63.8,90,72,53,29.99,29.88,10,1,15,0.00
2013-6-25,81.5,74.9,69.0,72.8,68.1,64.7,90,80,68,29.89,29.75,11,1,17,0.06
2013-6-26,84.3,75.1,68.8,72.0,67.6,64.0,91,79,59,29.77,29.73,7,1,16,0.00
2013-6-27,80.2,71.9,65.5,72.0,67.5,63.6,95,86,74,29.76,29.60,5,0,8,0.03
2013-6-28,67.4,63.9,61.3,65.7,63.0,60.4,98,97,92,29.59,29.47,4,0,7,0.66
2013-6-29,77.5,66.6,60.9,67.2,63.4,60.3,99,90,67,29.66,29.47,4,0,7,0.70
2013-6-30,76.4,68.2,59.8,68.3,63.1,59.0,98,84,69,29.89,29.65,4,0,10,0.00
2013-7-1,66.4,64.0,59.6,64.6,62.0,58.8,97,93,86,30.03,29.89,9,1,11,0.37
2013-7-2,74.5,65.2,59.4,69.8,63.0,58.5,98,93,82,30.03,29.98,3,0,8,0.01
2013-7-3,73.4,71.6,70.3,71.6,70.3,69.4,97,96,94,30.10,30.08,1,0,5,0.81
2013-7-4,86.3,75.4,69.2,74.2,71.1,68.0,98,87,63,30.13,30.06,4,0,10,0.07
2013-7-5,84.9,75.6,70.3,77.9,71.2,68.2,96,87,66,30.09,30.00,7,0,12,0.34
2013-7-6,86.2,74.8,68.1,72.7,68.4,65.8,93,82,55,30.10,29.98,3,0,6,0.00
2013-7-7,83.4,75.9,70.6,73.2,70.0,66.2,98,83,66,30.00,29.89,6,1,12,0.04
2013-7-8,84.8,74.9,69.6,72.8,69.7,66.6,96,85,63,30.00,29.92,5,0,10,0.05
2013-7-9,81.6,75.0,69.5,73.5,70.7,68.0,97,87,72,30.00,29.85,4,0,10,0.02
2013-7-10,85.7,77.2,70.7,76.4,71.2,65.3,96,82,68,29.85,29.64,12,2,16,0.00
2013-7-11,78.0,69.8,60.1,66.5,61.0,57.0,92,75,56,29.98,29.78,7,1,12,0.00
2013-7-12,74.6,67.1,60.5,68.0,62.9,59.4,98,87,70,30.15,29.98,4,0,9,0.00
2013-7-13,80.3,71.2,60.3,72.1,66.8,59.3,99,87,73,30.21,30.13,3,0,9,0.00
2013-7-14,87.4,77.2,67.9,76.0,70.8,67.0,98,82,61,30.26,30.20,4,0,7,0.00
2013-7-15,88.8,80.0,72.5,76.4,71.3,64.5,93,76,47,30.25,30.17,3,0,9,0.00
2013-7-16,90.0,80.6,69.9,75.2,70.2,64.2,96,73,47,30.24,30.15,6,0,7,0.00
2013-7-17,92.1,82.0,73.2,80.1,75.0,69.0,93,80,55,30.17,30.02,5,0,14,0.09
2013-7-18,90.2,82.4,75.5,79.3,75.5,72.2,95,80,65,30.04,29.89,4,0,14,0.03
2013-7-19,91.7,83.7,74.4,77.9,73.4,70.0,88,72,53,29.89,29.66,18,2,25,0.00
2013-7-20,81.6,76.1,66.7,69.2,64.6,60.9,89,69,51,29.84,29.73,4,0,9,0.38
2013-7-21,74.2,68.0,61.6,63.9,61.5,58.3,95,80,64,29.98,29.84,7,1,11,0.00
2013-7-22,79.6,68.6,58.6,67.4,62.1,57.8,98,81,56,29.97,29.74,4,0,13,0.00
2013-7-23,84.2,73.7,67.0,70.8,66.7,58.9,97,80,54,29.73,29.56,9,1,17,0.02
2013-7-24,68.2,62.2,53.9,58.9,53.2,50.3,93,73,55,30.02,29.66,10,1,13,0.00
2013-7-25,73.1,62.1,50.6,56.6,52.7,49.2,96,74,47,30.10,30.02,7,0,13,0.00
2013-7-26,75.5,64.0,51.2,60.0,54.4,49.8,96,74,44,30.10,29.98,4,0,9,0.00
2013-7-27,78.9,68.5,58.6,66.3,61.5,55.1,95,79,61,29.97,29.78,5,1,12,0.02
2013-7-28,75.1,67.0,59.0,65.8,62.2,57.0,97,85,61,29.94,29.76,3,0,10,0.09
2013-7-29,71.3,62.9,56.0,59.6,56.6,54.2,94,81,59,30.09,29.94,5,1,12,0.00
2013-7-30,76.1,65.8,56.6,62.0,58.4,54.6,94,78,53,30.16,30.09,5,0,12,0.00
2013-7-31,81.0,67.1,56.5,65.8,60.2,55.3,96,80,50,30.12,29.90,4,0,11,0.01
2013-8-1,77.2,68.5,63.4,69.3,64.0,62.0,98,86,64,29.89,29.73,10,1,14,0.44
2013-8-2,75.1,65.8,58.9,66.1,61.6,57.8,97,87,64,29.85,29.80,5,0,19,0.88
2013-8-3,75.7,67.3,60.3,62.2,59.8,55.5,98,79,51,29.89,29.78,6,1,13,0.16
2013-8-4,72.1,63.7,56.1,60.3,55.8,52.4,95,77,56,30.02,29.90,7,1,16,0.00
2013-8-5,75.7,62.9,52.1,59.5,54.4,50.4,96,76,47,30.08,29.99,5,0,10,0.00
2013-8-6,80.0,65.8,54.4,62.7,57.9,53.0,95,78,46,30.03,29.95,4,0,11,0.00
2013-8-7,81.8,72.3,64.5,70.2,65.0,60.0,89,78,66,29.95,29.82,11,1,16,0.01
2013-8-8,82.6,73.2,67.0,73.4,68.8,64.8,97,87,70,29.92,29.85,4,0,12,0.18
2013-8-9,78.9,70.5,65.3,69.7,66.5,61.0,98,88,59,29.88,29.81,4,0,12,0.71
2013-8-10,72.1,65.7,56.1,62.0,56.8,52.1,93,75,51,30.06,29.88,7,1,13,0.00
2013-8-11,76.2,64.7,53.2,59.8,56.0,52.1,98,76,47,30.10,30.01,3,0,9,0.00
2013-8-12,77.6,68.5,60.1,65.4,60.9,56.4,90,78,57,30.02,29.81,3,0,9,0.00
2013-8-13,72.1,65.4,58.3,67.3,60.1,50.2,98,84,62,29.83,29.71,13,1,20,0.68
2013-8-14,68.7,59.8,53.1,55.5,52.1,49.2,96,77,50,30.05,29.81,11,2,15,0.12
2013-8-15,74.2,62.3,51.3,56.5,52.6,48.7,92,72,49,30.10,30.03,11,1,13,0.00
2013-8-16,77.9,65.3,54.3,61.5,56.4,52.0,94,75,51,30.18,30.08,3,0,7,0.00
2013-8-17,79.7,66.4,54.6,63.2,58.1,53.5,97,77,47,30.26,30.17,5,0,9,0.00
2013-8-18,81.6,68.3,57.8,65.0,59.8,54.9,93,76,48,30.22,30.07,3,0,6,0.00
2013-8-19,80.9,69.8,59.0,68.1,62.1,57.6,96,79,51,30.08,29.99,4,0,9,0.00
2013-8-20,83.6,71.8,60.1,67.2,63.0,58.7,95,76,49,30.09,30.01,4,0,10,0.00
2013-8-21,86.5,73.6,61.3,68.7,63.8,59.6,94,73,49,30.12,29.97,4,0,9,0.00
2013-8-22,83.0,73.2,64.1,72.4,66.4,57.4,93,80,66,29.99,29.86,5,1,15,0.03
2013-8-23,72.6,63.3,56.2,60.5,57.4,54.3,95,82,55,30.18,29.95,6,0,9,0.00
2013-8-24,75.8,62.8,51.2,59.2,53.3,50.1,97,75,41,30.33,30.18,4,0,7,0.01
2013-8-25,82.0,67.8,53.9,62.8,56.7,52.2,94,71,42,30.31,30.08,6,1,11,0.03
2013-8-26,77.0,69.9,64.6,71.1,66.7,61.6,96,90,78,30.10,29.88,6,1,14,0.55
2013-8-27,81.3,73.2,67.7,74.9,70.3,67.1,99,91,76,29.90,29.83,3,0,7,0.01
2013-8-28,81.6,74.8,69.2,74.3,71.3,68.6,99,90,74,29.85,29.80,6,0,9,1.27
2013-8-29,79.5,70.7,65.8,70.5,67.3,64.6,96,89,74,29.99,29.96,0,0,2,0.01
2013-8-30,83.5,73.3,63.5,71.9,67.7,62.9,98,84,62,29.97,29.72,4,0,9,0.01
2013-8-31,80.2,73.4,67.0,72.3,69.7,65.9,97,88,74,29.81,29.67,6,0,10,0.05
2013-9-1,78.2,71.0,65.2,70.9,68.1,64.3,99,91,76,29.81,29.71,4,0,9,0.02
2013-9-2,82.0,71.8,64.0,73.8,67.5,58.4,98,87,71,29.75,29.63,6,1,14,0.00
2013-9-3,66.4,63.2,60.2,60.0,58.1,56.3,89,83,76,29.90,29.74,7,1,14,0.00
2013-9-4,77.6,66.1,54.2,64.1,57.4,50.8,96,76,41,29.95,29.90,10,1,19,0.06
2013-9-5,66.1,58.4,48.3,61.2,49.9,42.2,94,75,46,30.19,29.94,10,1,12,0.00
2013-9-6,71.1,57.4,44.0,53.3,47.6,42.5,95,72,44,30.26,30.06,4,0,9,0.00
2013-9-7,64.1,58.8,52.7,62.0,55.4,49.8,95,89,82,30.06,29.83,5,0,10,0.11
2013-9-8,66.3,61.2,48.5,64.9,53.2,46.0,97,77,49,30.08,29.82,6,1,15,0.05
2013-9-9,76.6,59.8,46.2,62.9,53.0,44.6,94,80,55,30.12,29.92,10,1,16,0.01
2013-9-10,89.9,77.1,65.6,77.8,70.3,61.7,96,81,62,29.95,29.84,10,2,18,0.20
2013-9-11,91.1,81.0,73.1,76.7,73.0,67.2,93,77,59,29.97,29.84,4,1,17,0.00
2013-9-12,73.7,68.9,60.9,69.2,66.0,57.6,96,91,82,29.88,29.67,8,1,14,0.09
2013-9-13,60.9,54.4,49.5,58.7,52.5,48.1,97,93,86,30.00,29.71,3,0,13,0.35
2013-9-14,61.6,52.3,47.7,48.1,45.7,40.8,95,79,50,30.10,29.99,4,0,10,0.00
2013-9-15,68.9,55.4,44.4,56.4,49.5,42.5,94,81,60,30.13,30.03,10,1,11,0.10
2013-9-16,54.3,50.4,44.7,53.5,48.2,42.7,97,92,77,30.35,30.04,4,0,11,0.07
2013-9-17,66.1,50.6,39.3,49.2,43.6,38.5,97,80,45,30.48,30.28,3,0,9,0.01
2013-9-18,73.3,56.4,45.1,53.5,46.5,41.8,95,73,33,30.28,30.08,6,0,7,0.00
2013-9-19,78.8,62.2,49.9,62.3,54.8,47.2,96,79,48,30.10,29.98,3,0,8,0.00
2013-9-20,83.2,68.5,56.2,67.3,61.6,54.5,97,80,58,29.99,29.73,6,1,17,0.00
2013-9-21,71.2,64.0,60.1,62.6,60.8,59.2,97,90,73,29.73,29.59,5,1,13,1.04
2013-9-22,60.1,55.3,50.0,59.2,50.1,42.6,97,83,64,30.00,29.69,9,1,14,0.00
2013-9-23,58.5,50.8,43.1,45.4,43.5,40.7,93,77,57,30.14,30.00,5,0,11,0.00
2013-9-24,64.3,51.7,41.8,50.4,44.4,40.5,98,78,47,30.13,29.99,3,0,9,0.01
2013-9-25,68.7,53.1,41.6,54.5,46.7,40.3,97,81,49,30.00,29.94,4,0,8,0.00
2013-9-26,69.0,55.0,43.4,58.7,50.4,42.5,97,86,65,30.13,29.98,3,0,9,0.01
2013-9-27,65.8,55.7,46.1,57.0,52.0,45.2,99,88,72,30.24,30.13,4,0,11,0.01
2013-10-4,63.8,61.7,60.3,63.2,60.1,58.6,98,95,91,30.04,29.97,2,0,6,0.30
2013-10-5,62.2,60.1,58.6,59.8,57.7,55.3,96,92,86,30.07,30.00,4,0,11,0.05
2013-10-6,82.4,68.6,59.2,73.7,65.4,57.2,99,90,73,30.00,29.69,7,1,16,0.42
2013-10-7,73.3,60.0,50.0,66.5,55.6,47.0,96,86,73,30.01,29.58,9,2,18,0.77
2013-10-8,64.1,52.5,44.1,50.0,46.0,42.8,96,80,50,30.33,30.01,5,0,12,0.00
2013-10-9,67.9,52.5,41.2,52.9,46.6,40.2,100,82,50,30.39,30.26,5,0,10,0.01
2013-10-10,68.2,52.5,41.4,49.2,44.7,39.5,94,77,44,30.26,30.14,3,0,6,0.01
2013-10-11,67.0,52.8,43.4,56.1,48.1,42.3,97,86,59,30.15,30.10,2,0,9,0.01
2013-10-12,75.1,57.3,42.2,55.8,46.1,41.4,98,71,38,30.17,30.11,2,0,7,0.01
2013-10-13,69.2,61.9,54.9,62.0,54.8,44.4,97,78,61,30.24,30.16,6,1,14,0.13
2013-10-14,64.3,55.8,44.5,59.3,51.8,43.2,100,87,63,30.30,30.21,4,0,9,0.14
2013-10-15,68.4,54.8,41.6,57.8,50.5,40.5,99,86,66,30.26,29.92,4,0,11,0.01
2013-10-16,65.2,60.6,56.2,59.1,55.5,52.0,95,83,72,29.92,29.72,6,1,14,0.34
2013-10-17,62.5,54.1,48.3,53.8,50.4,45.8,97,88,66,29.85,29.64,3,0,7,0.42
2013-10-18,60.1,52.4,47.6,51.2,45.1,39.5,96,78,50,29.87,29.69,12,2,17,0.02
2013-10-19,62.4,52.4,43.0,49.3,45.2,40.6,92,77,54,29.87,29.60,9,1,17,0.08
2013-10-20,54.6,46.8,40.6,45.1,41.6,37.5,92,83,64,29.96,29.72,7,1,15,0.01
2013-10-21,67.3,54.4,45.0,49.3,42.7,40.6,92,67,40,29.96,29.76,5,1,16,0.00
2013-10-22,51.5,45.1,37.4,48.0,37.4,29.8,96,76,50,29.82,29.70,16,2,19,0.28
2013-10-23,45.4,39.4,34.2,39.4,35.1,31.2,92,85,74,29.80,29.68,3,0,12,0.04
2013-10-24,47.7,39.3,33.7,37.3,34.1,30.8,94,82,60,30.00,29.77,11,2,20,0.27
2013-10-25,48.4,40.7,34.4,41.7,36.8,33.1,97,87,65,30.16,30.00,4,0,12,0.02
2013-10-26,45.7,42.2,38.2,37.2,34.1,29.8,91,74,55,30.10,29.76,12,3,20,0.02
2013-10-27,46.4,41.5,36.0,39.2,36.7,33.7,94,84,68,30.04,29.79,6,1,12,0.00
2013-10-28,48.6,41.0,27.9,40.3,32.8,25.1,89,74,45,30.38,30.01,5,1,12,0.00
2013-10-29,46.7,36.3,26.9,33.5,28.4,23.6,92,74,51,30.47,30.29,6,0,8,0.01
2013-10-30,57.5,44.5,37.4,43.0,39.3,33.5,96,83,56,30.29,30.08,3,0,7,0.06
2013-10-31,67.4,55.3,43.0,60.7,51.3,39.2,97,87,71,30.08,29.36,12,1,16,0.49
2013-11-1,63.3,56.4,47.4,59.0,50.5,45.4,94,81,66,29.64,29.14,21,4,29,0.21
2013-11-2,50.8,44.4,37.0,46.0,42.5,34.3,100,93,80,29.98,29.58,5,1,12,0.47
2013-11-3,37.8,33.4,28.4,34.1,25.6,22.7,89,73,58,30.52,29.98,4,0,12,0.00
2013-11-4,42.4,34.3,25.0,27.3,23.0,19.0,91,66,39,30.65,30.43,5,0,12,0.00
2013-11-5,57.0,46.0,36.2,38.2,30.9,20.8,63,55,47,30.45,30.31,9,1,15,0.00
2013-11-6,65.1,55.5,46.6,56.4,45.5,35.0,96,70,58,30.31,29.77,13,2,15,0.13
2013-11-7,57.7,44.1,38.2,55.4,37.8,31.0,93,79,60,29.96,29.75,12,2,19,0.14
2013-11-8,43.0,38.4,34.9,33.6,31.0,27.6,88,75,56,30.21,29.93,21,3,22,0.03
2013-11-9,49.4,41.7,34.2,43.8,33.7,29.0,92,74,58,30.20,29.75,7,2,15,0.04
2013-11-10,48.8,43.6,39.7,43.3,36.8,31.3,91,77,67,30.13,29.75,22,4,25,0.04
2013-11-11,45.0,36.7,29.0,37.1,31.7,25.9,95,83,64,30.14,29.90,9,2,18,0.44
2013-11-12,31.9,27.8,24.0,27.1,22.5,20.1,89,80,68,30.39,30.09,7,1,17,0.09
2013-11-13,36.5,30.7,21.8,29.3,21.7,15.4,85,70,56,30.40,30.05,11,4,22,0.04
2013-11-14,49.8,45.8,34.7,29.8,23.3,19.8,65,42,34,30.08,29.98,10,4,18,0.00
2013-11-15,52.1,44.1,35.8,32.5,27.1,20.8,75,52,36,30.10,30.01,9,1,13,0.00
2013-11-16,60.1,49.1,37.7,42.4,35.9,28.6,73,61,49,30.23,30.01,6,1,11,0.00
2013-11-17,60.7,56.2,51.8,55.0,50.5,42.4,92,81,70,30.01,29.32,15,4,23,0.24
2013-11-18,54.5,45.6,35.2,48.3,37.2,28.8,84,72,64,29.87,29.34,19,6,30,0.02
2013-11-19,37.7,34.2,24.8,30.3,26.7,21.3,87,74,62,30.44,29.87,16,3,22,0.00
2013-11-20,39.7,29.9,21.5,25.1,21.8,19.3,100,73,48,30.60,30.44,4,0,12,0.00
2013-11-21,43.9,38.5,31.5,37.2,27.2,18.2,91,65,51,30.45,30.24,9,3,19,0.05
2013-11-22,47.2,41.5,32.4,46.4,39.7,27.8,97,93,80,30.24,29.97,13,2,21,0.30
2013-11-23,35.4,27.8,18.5,27.9,22.2,11.0,93,79,58,30.18,29.98,15,4,22,0.01
2013-11-24,23.1,19.9,16.1,16.9,13.8,10.8,90,77,63,30.41,30.17,13,3,18,0.00
2013-11-25,34.2,27.4,16.5,24.4,16.7,10.6,86,66,41,30.39,30.10,10,2,15,0.01
2013-11-26,35.9,33.6,32.2,31.6,28.7,24.4,96,83,72,30.14,29.80,7,1,15,0.01
2013-11-27,33.3,29.9,22.6,32.3,27.6,18.2,97,91,79,29.89,29.62,11,2,19,0.03
2013-11-28,28.3,21.8,15.2,18.8,16.8,12.0,92,81,60,30.43,29.89,9,1,16,0.02
2013-11-29,29.1,19.8,8.5,20.9,14.9,5.7,93,82,60,30.74,30.43,3,0,9,0.01
2013-11-30,32.1,22.0,7.2,24.3,16.2,4.7,91,79,64,30.74,30.18,6,2,21,0.00
2013-12-1,37.8,33.8,29.8,33.6,29.3,24.1,94,84,73,30.18,29.95,7,1,12,0.07
2013-12-2,39.6,35.9,30.9,34.2,32.7,29.3,94,88,79,29.95,29.84,2,0,3,0.01
2013-12-3,41.6,32.5,26.2,31.9,28.4,24.7,96,86,61,30.00,29.89,6,0,6,0.00
2013-12-4,51.2,39.0,33.1,41.0,35.1,29.6,94,86,68,30.02,29.87,6,0,13,0.02
2013-12-5,60.5,49.7,39.5,54.5,44.1,33.3,87,81,65,29.99,29.71,14,4,21,0.00
2013-12-6,39.5,33.6,30.8,33.7,28.2,24.0,93,81,69,30.23,29.98,7,2,13,0.13
2013-12-7,31.7,28.0,24.6,26.1,20.2,15.6,84,72,58,30.55,30.23,11,2,18,0.00
2013-12-8,29.3,24.9,19.9,23.1,16.2,13.3,89,69,54,30.58,30.21,5,1,13,0.00
2013-12-9,38.8,33.6,26.6,35.6,29.6,22.7,96,85,76,30.21,29.84,13,4,22,0.05
2013-12-10,32.3,24.4,18.7,25.9,16.2,11.0,91,71,55,30.04,29.90,15,4,20,0.00
2013-12-11,25.8,21.4,13.8,19.7,13.4,8.1,89,71,57,30.26,30.04,10,3,24,0.01
2013-12-12,19.8,15.4,9.5,14.8,10.4,5.9,90,81,63,30.33,30.03,11,2,19,0.00
2013-12-13,23.0,18.2,10.4,19.7,13.0,5.2,90,80,69,30.40,30.02,9,2,20,0.00
2013-12-14,19.2,13.5,9.5,17.3,10.3,4.6,92,87,80,30.45,29.76,5,1,10,0.00
2013-12-15,23.6,21.2,19.0,21.6,18.0,11.7,100,88,71,29.84,29.61,20,2,21,0.00
2013-12-16,21.9,12.8,-1.2,15.5,8.8,-4.4,90,84,74,30.19,29.84,8,1,20,0.00
2013-12-17,26.7,17.1,-1.9,24.5,14.1,-5.3,92,88,80,30.16,29.91,6,1,14,0.00
2013-12-18,31.7,30.3,28.8,24.3,23.2,22.2,81,75,69,30.04,29.94,5,1,13,0.02
2013-12-19,41.2,34.4,26.7,33.2,27.5,18.8,90,76,66,30.04,29.88,13,2,18,0.44
2013-12-20,41.2,37.4,34.9,39.9,36.0,32.8,97,95,87,30.00,29.77,3,0,7,0.39
2013-12-21,47.3,36.5,30.9,46.8,35.8,30.1,99,97,95,29.88,29.69,12,1,12,0.74
2013-12-22,40.9,34.9,31.1,40.6,34.1,30.4,99,97,91,29.95,29.61,7,0,11,1.02
2013-12-23,39.7,34.1,24.6,36.9,31.4,20.2,94,90,83,30.24,29.93,6,1,11,0.01
2013-12-24,24.6,19.6,11.5,22.3,17.0,8.1,93,89,84,30.49,30.20,9,1,15,0.00
2013-12-25,24.9,13.6,0.3,16.6,8.7,-2.4,91,81,69,30.53,30.21,4,0,7,0.00
2013-12-26,30.8,26.7,22.3,28.0,21.1,15.9,93,79,70,30.27,30.06,9,2,16,0.03
2013-12-27,32.1,27.1,19.7,27.5,22.7,13.4,91,83,74,30.28,30.06,7,1,12,0.01
2013-12-28,42.4,37.2,29.6,35.2,31.5,25.6,92,80,65,30.07,29.91,8,2,17,0.03
2013-12-29,45.0,39.5,27.4,38.7,33.3,24.6,94,79,59,29.91,29.60,10,2,20,0.00
2013-12-30,27.4,17.9,11.6,24.2,13.9,8.5,90,84,74,30.22,29.74,10,2,22,0.00
2013-12-31,24.0,17.7,14.1,20.1,11.3,4.6,87,76,63,30.23,29.97,13,3,24,0.00
2014-1-1,20.6,16.8,14.7,14.5,11.1,8.3,90,78,64,30.40,30.23,5,1,14,0.00
2014-1-2,15.4,10.7,4.6,13.2,8.2,1.8,91,89,88,30.31,30.01,14,2,17,0.00